Location: Hamilton
(39.3990°N, 84.5610°W)
Time: 09:53:20
(UTC-05:00)

ISS - Visible Passes

Search period start: 18 December 2017 00:00
Search period end: 28 December 2017 00:00
Orbit: 402 x 406 km, 51.6° (Epoch: 19 December)

Date Brightness Start Highest point End Pass type
(mag) Time Alt. Az. Time Alt. Az. Time Alt. Az.
19 Dec -0.7 17:51:44 10° W 17:54:12 20° SW 17:56:39 10° S visible
24 Dec -0.4 07:02:44 10° SSE 07:04:23 13° SE 07:06:02 10° E visible
26 Dec -1.9 06:52:56 10° SSW 06:55:54 32° SE 06:58:53 10° ENE visible
27 Dec -0.8 06:01:32 10° S 06:03:42 17° SE 06:05:53 10° E visible
